Time,TemperatureF,DewpointF,PressureIn,WindDirection,WindDirectionDegrees,WindSpeedMPH,WindSpeedGustMPH,Humidity,HourlyPrecipIn,Conditions,Clouds,dailyrainin,SoftwareType,DateUTC
2013-02-25 14:24:00,34.5,15.4,21.11,NW,315,5.4,5.4,45,0.00,,---,0.00,VWS V14.01,2013-02-25 21:24:00,
2013-02-25 14:25:00,34.5,15.4,21.11,NW,304,5.4,7.6,45,0.00,,---,0.00,VWS V14.01,2013-02-25 21:25:00,
2013-02-25 14:28:00,34.5,15.4,21.11,NW,322,5.4,6.3,45,0.00,,---,0.00,VWS V14.01,2013-02-25 21:28:00,
2013-02-25 14:34:00,34.5,15.4,21.11,NW,313,5.4,6.3,45,0.00,,---,0.00,VWS V14.01,2013-02-25 21:34:00,
2013-02-25 14:43:00,34.5,14.9,21.11,NW,311,4.0,4.0,44,0.00,,---,0.00,VWS V14.01,2013-02-25 21:43:00,
2013-02-25 14:49:00,34.5,14.9,21.11,WNW,300,5.8,6.7,44,0.00,,---,0.00,VWS V14.01,2013-02-25 21:49:00,
2013-02-25 14:55:00,34.5,14.9,21.11,WNW,298,5.8,7.6,44,0.00,,---,0.00,VWS V14.01,2013-02-25 21:55:00,
2013-02-25 15:01:00,34.5,14.9,21.11,WNW,299,6.7,7.6,44,0.00,,---,0.00,VWS V14.01,2013-02-25 22:01:00,
2013-02-25 15:06:00,34.5,14.9,21.11,WNW,298,8.1,8.3,44,0.00,,---,0.00,VWS V14.01,2013-02-25 22:06:00,
2013-02-25 15:11:00,34.5,14.9,21.11,WNW,296,8.3,8.3,44,0.00,,---,0.00,VWS V14.01,2013-02-25 22:11:00,
2013-02-25 15:16:00,34.3,14.7,21.11,NW,314,7.6,7.6,44,0.00,,---,0.00,VWS V14.01,2013-02-25 22:16:00,
2013-02-25 15:22:00,34.3,14.7,21.11,NW,312,6.7,7.6,44,0.00,,---,0.00,VWS V14.01,2013-02-25 22:22:00,
2013-02-25 15:27:00,34.3,14.7,21.11,NW,320,5.8,8.1,44,0.00,,---,0.00,VWS V14.01,2013-02-25 22:27:00,
2013-02-25 15:33:00,34.3,14.7,21.11,NW,316,8.1,8.1,44,0.00,,---,0.00,VWS V14.01,2013-02-25 22:33:00,
2013-02-25 15:38:00,34.3,14.7,21.11,NW,305,8.1,8.3,44,0.00,,---,0.00,VWS V14.01,2013-02-25 22:38:00,
2013-02-25 15:43:00,34.2,14.5,21.11,NW,311,7.6,8.3,44,0.00,,---,0.00,VWS V14.01,2013-02-25 22:43:00,
2013-02-25 15:49:00,34.0,14.4,21.11,NW,314,8.1,8.3,44,0.00,,---,0.00,VWS V14.01,2013-02-25 22:49:00,
2013-02-25 15:54:00,34.0,13.9,21.11,NW,316,8.1,8.3,43,0.00,,---,0.00,VWS V14.01,2013-02-25 22:54:00,
2013-02-25 16:00:00,33.8,13.7,21.11,NW,313,8.1,8.3,43,0.00,,---,0.00,VWS V14.01,2013-02-25 23:00:00,
2013-02-25 16:05:00,33.6,14.1,21.11,NW,314,5.8,7.6,44,0.00,,---,0.00,VWS V14.01,2013-02-25 23:05:00,
2013-02-25 16:11:00,33.4,13.9,21.11,NW,310,5.8,8.1,44,0.00,,---,0.00,VWS V14.01,2013-02-25 23:11:00,
2013-02-25 16:17:00,33.3,13.7,21.11,NW,311,5.8,6.7,44,0.00,,---,0.00,VWS V14.01,2013-02-25 23:17:00,
2013-02-25 16:22:00,33.1,13.6,21.11,NW,316,4.9,6.3,44,0.00,,---,0.00,VWS V14.01,2013-02-25 23:22:00,
2013-02-25 16:27:00,33.1,13.6,21.11,NW,316,6.3,6.3,44,0.00,,---,0.00,VWS V14.01,2013-02-25 23:27:00,
2013-02-25 16:32:00,32.9,13.4,21.11,NW,314,5.8,6.3,44,0.00,,---,0.00,VWS V14.01,2013-02-25 23:32:00,
2013-02-25 16:38:00,32.5,13.1,21.11,NW,314,5.4,6.3,44,0.00,,---,0.00,VWS V14.01,2013-02-25 23:38:00,
2013-02-25 16:43:00,32.4,12.9,21.11,NW,315,5.4,5.8,44,0.00,,---,0.00,VWS V14.01,2013-02-25 23:43:00,
2013-02-25 16:49:00,32.2,12.7,21.11,NW,314,6.7,6.7,44,0.00,,---,0.00,VWS V14.01,2013-02-25 23:49:00,
2013-02-25 16:54:00,31.8,12.4,21.11,NW,313,5.8,6.3,44,0.00,,---,0.00,VWS V14.01,2013-02-25 23:54:00,
2013-02-25 17:00:00,31.3,11.9,21.11,NW,311,6.3,6.3,44,0.00,,---,0.00,VWS V14.01,2013-02-26 00:00:00,
2013-02-25 17:05:00,31.1,11.8,21.11,NW,311,5.8,5.8,44,0.00,,---,0.00,VWS V14.01,2013-02-26 00:05:00,
2013-02-25 17:10:00,30.7,11.4,21.11,NW,311,4.0,4.9,44,0.00,,---,0.00,VWS V14.01,2013-02-26 00:10:00,
2013-02-25 17:15:00,30.4,11.1,21.11,NW,310,4.0,4.0,44,0.00,,---,0.00,VWS V14.01,2013-02-26 00:15:00,
2013-02-25 17:21:00,30.2,10.9,21.11,NW,310,2.7,2.7,44,0.00,,---,0.00,VWS V14.01,2013-02-26 00:21:00,
2013-02-25 17:26:00,29.7,10.4,21.11,NW,310,0.0,0.0,44,0.00,,---,0.00,VWS V14.01,2013-02-26 00:26:00,
2013-02-25 17:31:00,29.1,9.9,21.11,NW,310,0.0,0.0,44,0.00,,---,0.00,VWS V14.01,2013-02-26 00:31:00,
2013-02-25 17:37:00,28.6,9.4,21.11,NW,310,0.0,0.0,44,0.00,,---,0.00,VWS V14.01,2013-02-26 00:37:00,
2013-02-25 17:42:00,28.0,8.9,21.11,NW,310,0.0,0.0,44,0.00,,---,0.00,VWS V14.01,2013-02-26 00:42:00,
2013-02-25 17:48:00,27.9,8.8,21.11,NW,311,4.9,5.8,44,0.00,,---,0.00,VWS V14.01,2013-02-26 00:48:00,
2013-02-25 17:53:00,27.7,9.1,21.11,NW,311,5.8,6.3,45,0.00,,---,0.00,VWS V14.01,2013-02-26 00:53:00,
2013-02-25 17:59:00,27.7,9.1,21.11,NW,309,6.3,7.6,45,0.00,,---,0.00,VWS V14.01,2013-02-26 00:59:00,
2013-02-25 18:05:00,27.3,8.8,21.11,NW,305,5.4,6.3,45,0.00,,---,0.00,VWS V14.01,2013-02-26 01:05:00,
2013-02-25 18:10:00,27.0,8.5,21.11,NW,305,5.4,5.4,45,0.00,,---,0.00,VWS V14.01,2013-02-26 01:10:00,
2013-02-25 18:16:00,26.8,8.3,21.11,NW,305,4.9,4.9,45,0.00,,---,0.00,VWS V14.01,2013-02-26 01:16:00,
2013-02-25 18:21:00,26.4,8.0,21.11,WNW,301,5.8,5.8,45,0.00,,---,0.00,VWS V14.01,2013-02-26 01:21:00,
2013-02-25 18:27:00,26.2,8.3,21.11,WNW,295,6.3,7.2,46,0.00,,---,0.00,VWS V14.01,2013-02-26 01:27:00,
2013-02-25 18:32:00,26.1,8.1,21.11,WNW,297,5.4,5.4,46,0.00,,---,0.00,VWS V14.01,2013-02-26 01:32:00,
2013-02-25 18:38:00,25.7,7.8,21.11,WNW,303,4.0,6.3,46,0.00,,---,0.00,VWS V14.01,2013-02-26 01:38:00,
2013-02-25 18:44:00,25.2,7.3,21.11,NW,309,5.8,5.8,46,0.00,,---,0.00,VWS V14.01,2013-02-26 01:44:00,
2013-02-25 18:49:00,24.6,6.8,21.11,NW,312,6.7,6.7,46,0.00,,---,0.00,VWS V14.01,2013-02-26 01:49:00,
2013-02-25 18:55:00,24.1,6.3,21.11,NW,313,5.8,7.6,46,0.00,,---,0.00,VWS V14.01,2013-02-26 01:55:00,
2013-02-25 19:00:00,23.7,6.0,21.11,NW,312,8.3,8.7,46,0.00,,---,0.00,VWS V14.01,2013-02-26 02:00:00,
2013-02-25 19:06:00,23.7,6.0,21.11,NW,304,8.3,8.3,46,0.00,,---,0.00,VWS V14.01,2013-02-26 02:06:00,
2013-02-25 19:11:00,23.5,6.8,21.11,NW,308,6.3,6.7,48,0.00,,---,0.00,VWS V14.01,2013-02-26 02:11:00,
2013-02-25 19:16:00,23.7,7.4,21.11,NW,307,8.3,8.7,49,0.00,,---,0.00,VWS V14.01,2013-02-26 02:16:00,
2013-02-25 19:22:00,23.7,7.4,21.11,NW,306,8.7,8.7,49,0.00,,---,0.00,VWS V14.01,2013-02-26 02:22:00,
2013-02-25 19:27:00,23.9,8.0,21.11,WNW,303,8.1,9.6,50,0.00,,---,0.00,VWS V14.01,2013-02-26 02:27:00,
2013-02-25 19:33:00,23.9,8.0,21.11,WNW,303,7.6,7.6,50,0.00,,---,0.00,VWS V14.01,2013-02-26 02:33:00,
2013-02-25 19:38:00,23.7,7.8,21.11,NW,306,5.8,6.3,50,0.00,,---,0.00,VWS V14.01,2013-02-26 02:38:00,
2013-02-25 19:44:00,23.7,8.2,21.11,NW,307,6.3,6.3,51,0.00,,---,0.00,VWS V14.01,2013-02-26 02:44:00,
2013-02-25 19:49:00,23.2,7.8,21.11,NW,310,6.3,7.6,51,0.00,,---,0.00,VWS V14.01,2013-02-26 02:49:00,
2013-02-25 19:55:00,22.8,7.4,21.11,NW,312,7.2,7.2,51,0.00,,---,0.00,VWS V14.01,2013-02-26 02:55:00,
2013-02-25 20:01:00,22.1,6.8,21.11,NW,312,7.6,7.6,51,0.00,,---,0.00,VWS V14.01,2013-02-26 03:01:00,
2013-02-25 20:06:00,21.7,6.4,21.11,NW,312,7.6,7.6,51,0.00,,---,0.00,VWS V14.01,2013-02-26 03:06:00,
2013-02-25 20:12:00,21.4,6.1,21.11,NNW,340,4.5,4.5,51,0.00,,---,0.00,VWS V14.01,2013-02-26 03:12:00,
2013-02-25 20:18:00,20.3,5.1,21.11,NNW,340,4.0,4.0,51,0.00,,---,0.00,VWS V14.01,2013-02-26 03:18:00,
2013-02-25 20:23:00,20.3,5.1,21.11,NNW,336,6.3,6.3,51,0.00,,---,0.00,VWS V14.01,2013-02-26 03:23:00,
2013-02-25 20:29:00,19.9,5.2,21.11,NW,325,6.3,6.3,52,0.00,,---,0.00,VWS V14.01,2013-02-26 03:29:00,
2013-02-25 20:34:00,20.3,5.9,21.11,NW,319,6.3,6.3,53,0.00,,---,0.00,VWS V14.01,2013-02-26 03:34:00,
2013-02-25 20:39:00,20.3,5.9,21.11,NW,321,7.6,7.6,53,0.00,,---,0.00,VWS V14.01,2013-02-26 03:39:00,
2013-02-25 20:44:00,20.5,6.1,21.11,NW,318,8.1,8.1,53,0.00,,---,0.00,VWS V14.01,2013-02-26 03:44:00,
2013-02-25 20:50:00,20.5,6.1,21.11,NW,317,8.3,8.3,53,0.00,,---,0.00,VWS V14.01,2013-02-26 03:50:00,
2013-02-25 20:56:00,20.7,6.7,21.11,NNW,328,6.7,6.7,54,0.00,,---,0.00,VWS V14.01,2013-02-26 03:56:00,
2013-02-25 21:01:00,20.7,6.7,21.11,NNW,329,5.8,5.8,54,0.00,,---,0.00,VWS V14.01,2013-02-26 04:01:00,
2013-02-25 21:06:00,20.7,6.7,21.11,NW,323,7.6,7.6,54,0.00,,---,0.00,VWS V14.01,2013-02-26 04:06:00,
2013-02-25 21:12:00,20.5,6.5,21.11,NW,318,8.1,8.1,54,0.00,,---,0.00,VWS V14.01,2013-02-26 04:12:00,
2013-02-25 21:18:00,20.7,6.7,21.11,NW,313,7.2,7.2,54,0.00,,---,0.00,VWS V14.01,2013-02-26 04:18:00,
2013-02-25 21:23:00,20.7,6.7,21.11,NW,309,5.8,6.3,54,0.00,,---,0.00,VWS V14.01,2013-02-26 04:23:00,
2013-02-25 21:29:00,20.8,6.8,21.11,NW,310,6.3,6.3,54,0.00,,---,0.00,VWS V14.01,2013-02-26 04:29:00,
2013-02-25 21:34:00,20.7,6.7,21.11,NW,309,6.3,6.3,54,0.00,,---,0.00,VWS V14.01,2013-02-26 04:34:00,
2013-02-25 21:40:00,20.7,6.7,21.11,NW,308,6.7,6.7,54,0.00,,---,0.00,VWS V14.01,2013-02-26 04:40:00,
2013-02-25 21:45:00,20.3,6.3,21.11,NW,308,6.3,6.3,54,0.00,,---,0.00,VWS V14.01,2013-02-26 04:45:00,
2013-02-25 21:50:00,20.3,6.3,21.11,NW,309,6.7,6.7,54,0.00,,---,0.00,VWS V14.01,2013-02-26 04:50:00,
2013-02-25 21:55:00,20.3,6.3,21.11,NW,310,6.3,6.3,54,0.00,,---,0.00,VWS V14.01,2013-02-26 04:55:00,
2013-02-25 22:00:00,19.9,6.0,21.11,NW,312,6.3,6.3,54,0.00,,---,0.00,VWS V14.01,2013-02-26 05:00:00,
2013-02-25 22:02:00,19.8,5.8,21.11,NW,313,5.8,5.8,54,0.00,,---,0.00,VWS V14.01,2013-02-26 05:02:00,
2013-02-25 22:03:00,19.8,5.8,21.11,NW,313,5.8,6.3,54,0.00,,---,0.00,VWS V14.01,2013-02-26 05:03:00,
2013-02-25 22:08:00,19.4,5.5,21.11,NW,313,5.8,5.8,54,0.00,,---,0.00,VWS V14.01,2013-02-26 05:08:00,
2013-02-25 22:09:00,19.4,5.5,21.11,NW,313,4.9,5.8,54,0.00,,---,0.00,VWS V14.01,2013-02-26 05:09:00,
2013-02-25 22:14:00,19.4,5.5,21.11,NW,313,4.0,4.0,54,0.00,,---,0.00,VWS V14.01,2013-02-26 05:14:00,
2013-02-25 22:19:00,18.5,4.6,21.11,NW,313,4.5,4.5,54,0.00,,---,0.00,VWS V14.01,2013-02-26 05:19:00,
2013-02-25 22:25:00,18.1,4.3,21.11,NW,313,4.0,4.0,54,0.00,,---,0.00,VWS V14.01,2013-02-26 05:25:00,
2013-02-25 22:30:00,18.3,4.5,21.11,NW,313,4.9,4.9,54,0.00,,---,0.00,VWS V14.01,2013-02-26 05:30:00,
2013-02-25 22:35:00,18.3,4.5,21.11,NW,313,5.4,5.4,54,0.00,,---,0.00,VWS V14.01,2013-02-26 05:35:00,
2013-02-25 22:40:00,18.3,4.5,21.11,NW,312,5.4,5.8,54,0.00,,---,0.00,VWS V14.01,2013-02-26 05:40:00,
2013-02-25 22:46:00,19.0,5.5,21.11,NW,311,5.4,5.4,55,0.00,,---,0.00,VWS V14.01,2013-02-26 05:46:00,
2013-02-25 22:51:00,19.2,5.3,21.11,NW,305,4.5,5.4,54,0.00,,---,0.00,VWS V14.01,2013-02-26 05:51:00,
2013-02-25 22:57:00,18.9,5.0,21.11,NW,305,3.1,3.1,54,0.00,,---,0.00,VWS V14.01,2013-02-26 05:57:00,
2013-02-25 23:03:00,18.7,4.8,21.11,NW,305,4.0,4.0,54,0.00,,---,0.00,VWS V14.01,2013-02-26 06:03:00,
2013-02-25 23:08:00,18.7,4.8,21.11,WNW,303,6.3,6.3,54,0.00,,---,0.00,VWS V14.01,2013-02-26 06:08:00,
2013-02-25 23:14:00,18.7,4.8,21.11,WNW,285,6.3,6.3,54,0.00,,---,0.00,VWS V14.01,2013-02-26 06:14:00,
2013-02-25 23:19:00,17.6,3.8,21.11,West,279,5.4,5.4,54,0.00,,---,0.00,VWS V14.01,2013-02-26 06:19:00,
2013-02-25 23:25:00,17.2,3.5,21.11,WNW,284,2.7,2.7,54,0.00,,---,0.00,VWS V14.01,2013-02-26 06:25:00,
2013-02-25 23:30:00,16.0,1.9,21.11,WNW,294,4.9,5.4,53,0.00,,---,0.00,VWS V14.01,2013-02-26 06:30:00,
2013-02-25 23:35:00,15.3,1.6,21.11,WNW,297,5.4,5.4,54,0.00,,---,0.00,VWS V14.01,2013-02-26 06:35:00,
2013-02-25 23:40:00,14.9,1.3,21.11,WNW,294,6.3,7.2,54,0.00,,---,0.00,VWS V14.01,2013-02-26 06:40:00,
2013-02-25 23:46:00,14.5,0.9,21.11,WNW,298,8.1,8.1,54,0.00,,---,0.00,VWS V14.01,2013-02-26 06:46:00,
2013-02-25 23:52:00,14.5,1.3,21.11,WNW,299,8.1,8.1,55,0.00,,---,0.00,VWS V14.01,2013-02-26 06:52:00,
2013-02-25 23:57:00,14.9,1.7,21.11,WNW,303,7.6,7.6,55,0.00,,---,0.00,VWS V14.01,2013-02-26 06:57:00,